Volver al catálogo

FENGYUN 1C DEB

ActivoSSO
NORAD 31032·DEBRIS·🇨🇳 China

Lanzado May 10, 1999 desde Taiyuan Satellite Launch Center

Loading…

Próximos Pases (próximas 24 horas)

TLE

ActualizadoSource: Space-Track

Época: Sep 14, 2026, 17:26 UTC

1 31032U 99025BEA 26257.72652130  .00001811  00000-0  10930-2 0  9998
2 31032  99.3917 280.3816 0138307 158.6784 273.8791 14.03327667988515

Sigue FENGYUN 1C DEB en tiempo real con AllMySat

Download on the App Store